This demonstration page uses our WeatherBlox Daily Observations layout. Learn more.

Left ArrowRight Arrow

36.17497, -115.13722

Hourly Observations for October 25, 2016

Temp ( °F °C ) Dew Point ( °F °C ) Humidity (%) Winds ( mph kmh ) Pressure ( in mb ) Visibility ( mi km ) Precip ( " mm )
12:28 am 00:28 Mostly Cloudy 61 16 57 14 88 88 Calm 30.03 1017 10 16.0934 0 0
12:51 am 00:51 Partly Cloudy 61 16 57 14 88 88 Calm 30.03 1017 10 16.0934 0 0
12:53 am 00:53 Mostly Clear 61 16.1 58 14.4 90 90 Calm 30.12 1020 10 16.0934 0 0
1:53 am 01:53 Clear 60 15.6 57 13.9 90 90 ENE 3 6 30.12 1020 10 16.0934 0 0
2:53 am 02:53 Clear 59 15 57 13.9 93 93 Calm 30.11 1020 10 16.0934 0 0
3:20 am 03:20 Mostly Cloudy 57 14 57 14 100 100 Calm 30.06 1018 10 16.0934 0 0
3:53 am 03:53 Cloudy 60 15.6 58 14.4 93 93 Calm 30.11 1020 10 16.0934 0 0
4:08 am 04:08 Cloudy 61 16 57 14 88 88 Calm 30.03 1017 10 16.0934 0 0
4:53 am 04:53 Cloudy 60 15.6 58 14.4 93 93 Calm 30.11 1020 10 16.0934 0 0
5:53 am 05:53 Cloudy 60 15.6 57 13.9 90 90 S 3 6 30.12 1020 10 16.0934 0 0
6:53 am 06:53 Cloudy 60 15.6 56 13.3 86 86 Calm 30.13 1020 10 16.0934 0 0
7:53 am 07:53 Cloudy 60 15.6 56 13.3 86 86 Calm 30.15 1021 10 16.0934 0 0
8:53 am 08:53 Cloudy 61 16.1 57 13.9 87 87 SE 6 9 30.17 1022 10 16.0934 0 0
9:46 am 09:46 Cloudy 64 18 57 14 78 78 S 5 7 30.09 1019 10 16.0934 0 0
9:53 am 09:53 Cloudy 64 17.8 57 13.9 78 78 S 5 7 30.17 1022 10 16.0934 0 0
10:53 am 10:53 Partly Cloudy 66 18.9 58 14.4 75 75 SE 7 11 30.17 1022 10 16.0934 0 0
11:53 am 11:53 Mostly Cloudy 69 20.6 57 13.9 66 66 VRB 3 6 30.16 1021 10 16.0934 0 0
12:34 pm 12:34 Partly Cloudy 68 20 55 13 64 64 S 5 7 30.03 1017 10 16.0934 0 0
12:53 pm 12:53 Mostly Cloudy 70 21.1 56 13.3 61 61 SE 3 6 30.12 1020 10 16.0934 0 0
1:09 pm 13:09 Partly Cloudy 69 20.6 55 12.8 61 61 VRB 3 6 30 1016 10 16.0934 0 0
1:53 pm 13:53 Mostly Sunny 72 22.2 56 13.3 57 57 Calm 30.1 1019 10 16.0934 0 0
2:53 pm 14:53 Sunny 73 22.8 56 13.3 55 55 Calm 30.09 1019 10 16.0934 0 0
3:53 pm 15:53 Sunny 74 23.3 55 12.8 52 52 VRB 3 6 30.09 1019 10 16.0934 0 0
4:53 pm 16:53 Sunny 74 23.3 55 12.8 52 52 E 5 7 30.08 1019 10 16.0934 0 0
5:53 pm 17:53 Clear 73 22.8 54 12.2 51 51 Calm 30.08 1019 10 16.0934 0 0
6:53 pm 18:53 Clear 72 22.2 54 12.2 53 53 Calm 30.1 1019 10 16.0934 0 0
7:53 pm 19:53 Clear 70 21.1 56 13.3 61 61 Calm 30.12 1020 10 16.0934 0 0
8:53 pm 20:53 Clear 67 19.4 56 13.3 68 68 NNW 3 6 30.13 1020 10 16.0934 0 0
9:53 pm 21:53 Clear 65 18.3 56 13.3 73 73 NW 5 7 30.14 1021 10 16.0934 0 0
10:53 pm 22:53 Clear 64 17.8 56 13.3 75 75 NW 5 7 30.14 1021 10 16.0934 0 0
11:53 pm 23:53 Clear 63 17.2 56 13.3 78 78 N 5 7 30.15 1021 10 16.0934 0 0

Powered by AerisWeather